This is the latest recevied weather packets stored in our database for station/object YN1GRE-3. If no packets are shown the sender has not sent any weather packets the latest 10 day(s).
| Time | Temp. | Humidity | Pressure | Rain* | Wind** | Luminosity | Snow |
|---|---|---|---|---|---|---|---|
| 1777826176 | 28.33° C | 74% | 1013 hPa | 0 mm | - | - | - |
| 1777817809 | 24.44° C | 94% | 1013 hPa | 0 mm | - | - | - |
| 1777808544 | 23.89° C | 77% | 1012 hPa | 0 mm | - | - | - |
| 1777807644 | 23.33° C | 77% | 1012 hPa | 0 mm | - | - | - |
| 1777804943 | 23.33° C | 77% | 1012 hPa | 0 mm | - | - | - |
| 1777804042 | 23.33° C | 78% | 1012 hPa | 0 mm | - | - | - |
| 1777802242 | 23.33° C | 78% | 1012 hPa | 0 mm | - | - | - |
| 1777798639 | 22.22° C | 83% | 1011 hPa | 0 mm | - | - | - |
| 1777794136 | 22.22° C | 83% | 1012 hPa | 0 mm | - | - | - |
| 1777790533 | 22.22° C | 83% | 1012 hPa | 0 mm | - | - | - |
| 1777789633 | 22.78° C | 82% | 1012 hPa | 0 mm | - | - | - |
| 1777786031 | 23.33° C | 81% | 1012 hPa | 0 mm | - | - | - |
| 1777785130 | 23.33° C | 81% | 1012 hPa | 0 mm | - | - | - |
| 1777784230 | 23.33° C | 81% | 1012 hPa | 0 mm | - | - | - |
| 1777768021 | 27.22° C | 79% | 1010 hPa | 0 mm | - | - | - |
| 1777767121 | 27.78° C | 79% | 1010 hPa | 0 mm | - | - | - |
| 1777759656 | 26.11° C | 79% | 1009 hPa | 0 mm | - | - | - |
| 1777754121 | 28.89° C | 79% | 1009 hPa | 0 mm | - | - | - |
| 1777753221 | 29.44° C | 79% | 1009 hPa | 0 mm | - | - | - |
| 1777741252 | 27.22° C | 89% | 1011 hPa | 0 mm | - | - | - |
| 1777737520 | 28.89° C | 89% | 1012 hPa | 0 mm | - | - | - |
| 1777733018 | 25.56° C | 10% | - | 0 mm | - | - | - |
| 1777729155 | 26.67° C | 10% | - | 0 mm | - | - | - |
| 1777725553 | 22.78° C | 86% | 1011 hPa | 0 mm | - | - | - |
| 1777719119 | 22.22° C | 87% | 1010 hPa | 0 mm | - | - | - |
* Rain latest hour (hover to see other rain measurements)
** Current wind speed in m/s (hover to see current wind gust speed)